User: anonymous   Login
Location: El Limón
(10.3059°N, 67.6321°W)
Time: 16:52:08
(UTC+00:00)
Language:

Nadezhda 2 Rocket - Orbit

View from above orbital plane
View from above orbital plane
View from above satellite
View from above satellite

Ground track
Ground track

The orbit data is extracted from the following two-line orbital elements,

1 20509U 90017B   24171.52255229  .00000122  00000-0  11040-3 0  9994
2 20509  82.9532 230.0278 0042305 212.1565 147.7011 13.75740848722183
Epoch (UTC): 19 June 2024 12:32:28
Eccentricity: 0.0042305
inclination: 82.9532°
perigee height: 948 km
apogee height: 1010 km
right ascension of ascending node: 230.0278°
argument of perigee: 212.1565°
revolutions per day: 13.75740848
mean anomaly at epoch: 147.7011°
orbit number at epoch: 72218

The dashed part of the orbit path shows where the satellite is in the earth's shadow,  

DLR